sat.trackr.live / text

‹ back to catalog

STARLINK-35958

NORAD 66822 · 2025-280B

PAYLOAD ACTIVE UNKNOWN

§ Identity

Operator
Country
US
Launch date
2025-12-02
Launch site
AFWTR
Launch vehicle
Mass (kg)
RCS (m²)

Purposes: comms

External: N2YO · Heavens-Above · Gunter

§ Orbital elements

Epoch: 2026-09-20T06:40:19.919712Z

Period
96.11 min
Inclination
70.0009°
Eccentricity
0.0003252
Mean motion
14.98336275 rev/d
Perigee alt
569.8 km
Apogee alt
574.3 km
Semi-major
6,950.2 km
B*
1.9259e-4
RAAN
203.8162°
Arg perigee
269.4295°
Mean anomaly
90.6492°
Rev number
4,522

§ Raw data

STARLINK-359581 66822U 25280B   26263.27800833  .00002206  00000+0  19259-3 0  99992 66822  70.0009 203.8162 0003252 269.4295  90.6492 14.98336275 45224

JSON: /api/v1/satellites/66822 · /tle

For live sub-satellite position, see the globe view (requires WebGL).

§ Visibility from observer

Set your observer location to see the next 7 days of passes ≥ 10°. The values pass through the URL so the page stays shareable.

No JS? Fill the form by hand. The geolocation button needs JavaScript.